Location: Byhalia Creek
(34.8270°N, 89.8040°W)
Time: 17:10:32
(UTC+00:00)

Cosmos 2084 Rocket - Pass Details

Date: 22 April 2026
Orbit: 531 x 579 km, 62.8° (Epoch: 9 May)

Event Time Altitude Azimuth Distance (km) Brightness Sun altitude
Rises 10:01:43 0° 319° (NW) 2,769 6.8 -15.5°
Reaches altitude 10° 10:04:03 10° 311° (NW) 1,875 5.8 -15.1°
Maximum altitude 10:07:57 37° 244° (WSW) 898 3.9 -14.4°
Drops below altitude 10° 10:11:53 10° 176° (S) 1,879 5.8 -13.7°
Sets 10:14:13 0° 168° (SSE) 2,775 6.8 -13.2°
